NOAA 16 DEB

Satellite information

Favourite Embed

Satellite Type and Status

DEBRISIN ORBIT

Key statistics

Satellite NOAA 16 DEB at a glance.

Uptime

8995

Days in orbit

Revolutions

≈ 14.3

Per day

Orbit

SSO

Sun Synchronous Orbit

Inclination

98.7

Latest

Satellite identification and parameters

Extended collection of information and parameters for NOAA 16 DEB.

Object identification

Identified? True

Debris? True

Object name: NOAA 16 DEB

International designator: 2000-055KS

Object number (NORAD): 41413

Object ID (CCSDS): 41413

Country: UNITED STATES OF AMERICA (US)

Current information (Y/N): Y

RCS size: SMALL

Orbital parameters

Period: 100.895 minutes

Inclination: 98.6951 deg

SMA: 7179.173 km

Apoapsis: 814.133 km

Periapsis: 787.942 km

RAAN: 185.6368 deg

Eccentricy: 0.0018241

Argument of periapsis: 256.0924 deg

Mean anomaly: 103.8227 deg

Mean motion: 14.27220816 rev/day

Mean motion (dot): 0.0000672 rev/day2

B* drag term: 0.0027613 1/REarth

Two-line elements (TLE)

Creation date: May 4, 2025, 6:26 a.m.

Reference frame: TEME

Reference center: EARTH

Epoch: May 3, 2025, 9:35 p.m. UTC

TLE line 0: 0 NOAA 16 DEB

TLE line 1: 1 41413U 00055KS 25123.89937612 .00006720 00000-0 27613-2 0 9997

TLE line 2: 2 41413 98.6951 185.6368 0018241 256.0924 103.8227 14.27220816475769

Live tracking on map

Real-time ground track for satellite NOAA 16 DEB.

In-orbit conjunctions

A list of the most updated potential collisions computed for object NOAA 16 DEB.

Target Orbit TCA Probability of collision Miss distance Type
FENGYUN 1C DEB SSO 2024-11-15 12:12:41 0.0001125081 671.0 (m) DEBRIS
DMSP 5D-2 F12 DEB SSO 2024-11-15 02:27:23 0.0001722691 901.0 (m) DEBRIS
COSMOS 2263 LEO 2024-09-24 23:58:11 0.0002638922 309.0 (m) PAYLOAD
FENGYUN 1C DEB SSO 2024-09-12 16:32:49 0.0002493866 48.0 (m) DEBRIS

Associated space launch

The NOAA K, L and M POES satellites begin the fifth generation of improved environmental monitoring in support of NOAA missions. The instrument payload has significant improvements and additions/deletions. The instrument changes have effected the spacecraft subsystems and data formats.

NOAA 16 DEB was lifted into orbit during the mission ‘Titan II SLV | NOAA 16’, on board a Titan II SLV space rocket.

The launch took place on Sept. 21, 2000, 10:22 a.m. from Space Launch Complex 4W.

For more information about the launch, click the button.

Launch to space Titan II SLV | NOAA 16
Titan II SLV | NOAA 16

Agency: N/A

Status: Launch Successful

Launch date: Sept. 21, 2000, 10:22 a.m. UTC

Rocket: Titan II SLV

Launch pad: Space Launch Complex 4W

Location: Vandenberg SFB, CA, USA

...

Latest news about this satellite

There are no fresh news available about this satellite. Check back as we update our databases every day.


Newsletter sign-up

Weekly statistics, charts and insights to help you stay on top of the space industry.